#timestamp,LO_Frequency,Hit 
1504908015.5,286047056.9,N
1504908035.4,286047054.1,N
1504908055.2,286047056.6,N
1504908075.1,286047054.6,N
1504908076.0,286047054.6,N
1504908095.8,286047054.3,N
1504908115.6,286047054.3,N
1504908135.5,286047054.3,N
1504908155.3,286047054.1,N
1504908175.1,286047054.4,N
1504908195.9,286047055.4,N
1504908215.7,286047053.2,N
1504908235.6,286047053.4,N
1504908255.4,286047051.0,N
1504908275.2,286047051.4,N
1504908295.1,286047051.2,N
1504908296.0,286047051.2,N
1504908315.8,286047051.1,N
1504908335.7,286047051.2,N
1504908355.5,286047050.9,N
1504908375.3,286047051.6,N
1504908395.2,286047051.9,P
1504908415.0,286046997.4,N
1504908415.9,286046997.4,N
1504908435.8,286046995.0,N
1504908455.6,286046995.3,N
1504908475.4,286046995.6,N
1504908495.3,286046996.5,N
1504908515.1,286046999.2,N
1504908535.8,286046997.6,N
1504908555.7,286046994.9,N
1504908575.5,286046997.9,N
1504908595.4,286046997.9,N
1504908615.2,286046994.9,N
1504908635.0,286046995.6,N
1504908635.9,286046995.6,N
1504908655.8,286046995.3,N
1504908675.6,286046996.1,N
1504908695.4,286046995.5,N
1504908715.3,286046995.1,N
1504908735.1,286046995.5,N
1504908755.9,286046996.2,N
1504908775.7,286046993.5,N
1504908795.5,286046993.7,N
1504908815.4,286046995.9,N
1504908835.2,286046995.3,N
1504908855.1,286046998.0,N
1504908856.0,286046998.0,N
1504908875.8,286046997.7,N
1504908895.6,286046997.9,N
1504908915.5,286046995.5,N
1504908935.3,286046995.2,N
1504908955.2,286046995.6,P
1504908975.9,286046999.6,N
1504908995.7,286046996.6,N
1504909015.6,286046999.3,N
1504909035.4,286046999.5,N
1504909055.2,286046996.5,N
1504909075.1,286046997.0,N
1504909076.0,286046997.0,N
1504909095.8,286046997.8,N
1504909115.7,286046997.4,N
1504909135.5,286046997.8,N
1504909155.3,286046996.8,N
1504909175.2,286046997.4,N
1504909195.0,286046997.5,N
1504909195.9,286046997.5,N
1504909215.7,286046997.0,N
1504909235.6,286046998.5,N
1504909255.4,286046998.6,N
1504909275.3,286046998.9,N
1504909295.1,286046998.2,N
1504909315.8,286046998.9,N
1504909335.7,286046998.3,N
1504909355.5,286046999.2,N
1504909375.4,286046996.5,P
1504909395.2,286046999.9,N
1504909415.0,286047000.8,N
1504909415.9,286047000.8,N
1504909435.8,286047000.0,N
1504909455.6,286046998.2,N
1504909475.4,286046998.1,N
1504909495.3,286047000.4,N
1504909515.1,286047002.4,N
1504909535.9,286046999.8,N
1504909555.7,286047000.0,N
1504909575.5,286046998.1,N
1504909595.4,286047000.4,N
1504909615.2,286046999.8,N
1504909635.1,286047000.8,N
1504909636.0,286047000.8,N
1504909655.8,286047000.6,N
1504909675.6,286047000.9,N
1504909695.5,286047001.1,N
1504909715.3,286046998.1,N
1504909735.1,286047000.8,N
1504909755.9,286046999.9,N
1504909775.7,286047002.3,N
1504909795.6,286047002.8,N
1504909815.4,286046999.7,N
1504909835.2,286047002.7,N
1504909855.1,286047000.3,N
1504909856.0,286047000.3,N
1504909875.8,286047000.2,N
1504909895.7,286046998.1,N
1504909915.5,286047000.3,N
1504909935.3,286046998.5,N
1504909955.2,286046998.3,N
1504909975.0,286046999.3,N
1504909975.9,286046999.3,P
1504909995.8,286046999.4,N
1504910015.6,286046997.1,P
1504910035.4,286046998.6,N
1504910055.3,286046998.1,N
1504910075.1,286046998.3,N
1504910095.8,286047001.2,N
1504910115.7,286047001.1,N
1504910135.5,286046999.9,N
1504910155.4,286047000.8,N
1504910175.2,286046998.9,N
1504910195.0,286046998.9,N
1504910195.9,286046998.9,N
1504910215.8,286046998.3,N
1504910235.6,286046998.1,N
1504910255.4,286046996.5,P
1504910275.3,286046998.3,N
1504910295.1,286046999.5,N
1504910315.9,286047000.7,N
1504910335.7,286046998.1,N
1504910355.5,286046999.3,N
1504910375.4,286046998.7,N
1504910395.2,286047000.2,N
1504910415.1,286047000.0,N
1504910416.0,286047000.0,N
1504910435.8,286047001.1,N
1504910455.6,286046998.6,N
1504910475.5,286046998.5,N
1504910495.3,286047000.7,N
1504910515.2,286047000.4,N
1504910535.9,286046998.4,N
1504910555.7,286047000.7,N
1504910575.6,286046998.2,N
1504910595.4,286046998.9,N
1504910615.2,286046998.8,N
1504910635.1,286047001.0,N
1504910636.0,286047001.0,N
1504910655.8,286047000.8,N
1504910675.7,286046996.5,N
1504910695.5,286046998.7,N
1504910715.3,286046998.3,N
1504910735.2,286047001.0,N
1504910755.0,286047000.5,N
1504910755.9,286047000.5,N
1504910775.7,286047000.9,N
1504910795.6,286047001.9,N
1504910815.4,286047001.9,N
1504910835.3,286047002.1,N
1504910855.1,286047000.5,N
1504910856.0,286047000.5,N
1504910875.8,286047000.9,N
1504910895.7,286046999.3,N
1504910915.5,286046998.6,N
1504910935.4,286046997.0,N
1504910955.2,286046999.3,N
1504910975.0,286047000.3,N
1504910975.9,286047000.3,N
1504910995.8,286047000.9,N
1504911015.6,286046999.3,N
1504911035.4,286046997.2,N
1504911055.3,286046998.9,N
1504911075.1,286047000.3,N
1504911095.9,286047000.6,P
1504911115.7,286047000.2,N
1504911135.5,286046999.8,N
1504911155.4,286047000.2,N
1504911175.2,286047002.7,P
1504911195.1,286047000.0,N
1504911196.0,286047000.0,N
1504911215.8,286047000.1,N
1504911235.6,286047002.2,N
1504911255.5,286047002.0,N
1504911275.3,286047002.1,N
1504911295.1,286047001.9,N
1504911315.9,286047002.4,N
1504911335.7,286047004.3,P
1504911355.6,286047000.1,N
1504911375.4,286046998.2,N
1504911395.2,286046998.9,N
1504911415.1,286046997.0,N
1504911416.0,286046997.0,N
1504911435.8,286046998.7,P
1504911455.7,286046998.9,N
1504911475.5,286046999.6,N
1504911495.3,286046999.3,N
1504911515.2,286046999.5,N
1504911535.0,286046997.1,P
1504911535.9,286046997.1,N
1504911555.8,286046999.3,N
1504911575.6,286046998.5,N
1504911595.4,286046998.5,N
